星链-5926 (STARLINK-5926 )

导读 | 豆包AI

STARLINK-5926是美国太空探索技术公司星链计划中的一颗卫星,于2023年3月17日发射升空,属于星链星座组网卫星,主要用于为全球提供低延迟、高速率的宽带互联网服务,尤其覆盖偏远地区等网络基础设施匮乏区域,进一步扩充了星链星座的在轨规模,推进了星链全球组网部署进程。

基本信息
目录编号:
55944
目录名称:
STARLINK-5926
国际标识:
2023-037AG
轨道中心:
EARTH
卫星名称:
星链-5926
卫星全名:
星链-5926 (STARLINK-5926 )
卫星状态:
在轨 (已飞行1140 天)
发射日期:
2023-03-17 UTC
国别 :
美国 (US)
星等 :
--
轨道信息
数据来源 国际轨道数据 AOE轨道数据
星历时间 2026-04-30T11:54:28+0800
7小时前
查看轨道信息
2026-04-30T07:00:00+0800
11小时前
查看轨道信息
半长轴 6950.193km 6950.128km
偏心率 0.0003624 0.000001
轨道倾角 70.000° 70.008°
近地点辐角 268.392° 333.212°
升交点赤经 154.543° 155.053°
平近点角 91.682° 4.178°
近地点 569.537km 571.984km
远地点 574.575km 571.998km
周期 96.107分钟 96.106分钟
每日圈数 14.9833 14.983513
详细信息
固有亮度:
5
最大亮度:
2.5
卫星平台:
Starlink v1.5
覆盖范围:
全球
运营商:
太空探索技术公司
运营商所在国:
美国
制造商(研发单位):
太空探索技术公司
制造商所在国:
美国
使用方式:
暂无
卫星简介
星链(Starlink)计划是由太空探索技术公司(SpaceX)提出的一个巨型低轨卫星互联网星座项目,计划在2019年至2024年间在太空搭建由约1.2万颗卫星组成的“星链”网络,其中1584颗将部署在地球上空550千米处的近地轨道,并从2020年开始工作。该卫星仍在工作。
2D轨道图
3D轨道图
轨道高度分析图
轨道倾角分析图
轨道综合分析图
查看轨道综合分析图